Вернуться в каталог

STARLINK-4615

АктивенСвязьVLEO
NORAD 53620·PAYLOAD·🇺🇸 United States

Запущен Aug 28, 2022 с Cape Canaveral Space Force Station

Loading…

Ближайшие Пролёты (ближайшие 24 часа)

TLE

СвежийSource: CelesTrak SupGP

Эпоха: Sep 15, 2026, 02:26 UTC

1 53620C 22104AJ  26258.10187500 -.00038686  00000+0 -11430-2 0  2581
2 53620  53.1577  92.9977 0001033  74.6019 337.3968 15.34408427    11

Отслеживайте STARLINK-4615 в реальном времени с AllMySat

Download on the App Store